owner,sensor,date,latitude,longitude,sea_surface_height_above_sea_level,qcFlag 
TCOON,ioos:station:TCOON:005:1,2017-05-01T00:18:00Z,27.6346,-97.2370,1.323,1111122 
TCOON,ioos:station:TCOON:005:1,2017-05-01T01:18:00Z,27.6346,-97.2370,1.305,1111122 
TCOON,ioos:station:TCOON:005:1,2017-05-01T02:18:00Z,27.6346,-97.2370,1.286,1111122 
TCOON,ioos:station:TCOON:005:1,2017-05-01T03:18:00Z,27.6346,-97.2370,1.265,1111122 
TCOON,ioos:station:TCOON:005:1,2017-05-01T04:24:00Z,27.6346,-97.2370,1.248,1111122 
TCOON,ioos:station:TCOON:005:1,2017-05-01T05:18:00Z,27.6346,-97.2370,1.228,1111122 
TCOON,ioos:station:TCOON:005:1,2017-05-01T06:18:00Z,27.6346,-97.2370,1.211,1111122 
TCOON,ioos:station:TCOON:005:1,2017-05-01T07:18:00Z,27.6346,-97.2370,1.198,1111122 
TCOON,ioos:station:TCOON:005:1,2017-05-01T08:24:00Z,27.6346,-97.2370,1.176,1111122 
TCOON,ioos:station:TCOON:005:1,2017-05-01T09:24:00Z,27.6346,-97.2370,1.16,1111122 
TCOON,ioos:station:TCOON:005:1,2017-05-01T10:24:00Z,27.6346,-97.2370,1.147,1111122 
TCOON,ioos:station:TCOON:005:1,2017-05-01T11:24:00Z,27.6346,-97.2370,1.141,1111122 
TCOON,ioos:station:TCOON:005:1,2017-05-01T12:24:00Z,27.6346,-97.2370,1.141,1111122 
TCOON,ioos:station:TCOON:005:1,2017-05-01T13:18:00Z,27.6346,-97.2370,1.139,1111122 
TCOON,ioos:station:TCOON:005:1,2017-05-01T14:18:00Z,27.6346,-97.2370,1.144,1111122 
TCOON,ioos:station:TCOON:005:1,2017-05-01T15:18:00Z,27.6346,-97.2370,1.155,1111122 
TCOON,ioos:station:TCOON:005:1,2017-05-01T16:18:00Z,27.6346,-97.2370,1.169,1111122 
TCOON,ioos:station:TCOON:005:1,2017-05-01T17:18:00Z,27.6346,-97.2370,1.18,1111122 
TCOON,ioos:station:TCOON:005:1,2017-05-01T18:18:00Z,27.6346,-97.2370,1.187,1111122 
TCOON,ioos:station:TCOON:005:1,2017-05-01T19:18:00Z,27.6346,-97.2370,1.2,1111122 
TCOON,ioos:station:TCOON:005:1,2017-05-01T20:18:00Z,27.6346,-97.2370,1.204,1111122 
TCOON,ioos:station:TCOON:005:1,2017-05-01T21:18:00Z,27.6346,-97.2370,1.2,1111122 
TCOON,ioos:station:TCOON:005:1,2017-05-01T22:18:00Z,27.6346,-97.2370,1.192,1111122 
TCOON,ioos:station:TCOON:005:1,2017-05-01T23:18:00Z,27.6346,-97.2370,1.174,1111122 
TCOON,ioos:station:TCOON:005:1,2017-05-02T00:18:00Z,27.6346,-97.2370,1.159,1111122 
TCOON,ioos:station:TCOON:005:1,2017-05-02T01:18:00Z,27.6346,-97.2370,1.14,1111122 
TCOON,ioos:station:TCOON:005:1,2017-05-02T02:18:00Z,27.6346,-97.2370,1.123,1111122 
TCOON,ioos:station:TCOON:005:1,2017-05-02T03:18:00Z,27.6346,-97.2370,1.108,1111122 
TCOON,ioos:station:TCOON:005:1,2017-05-02T04:18:00Z,27.6346,-97.2370,1.099,1111122 
TCOON,ioos:station:TCOON:005:1,2017-05-02T05:18:00Z,27.6346,-97.2370,1.09,1111122 
TCOON,ioos:station:TCOON:005:1,2017-05-02T06:18:00Z,27.6346,-97.2370,1.076,1111122 
TCOON,ioos:station:TCOON:005:1,2017-05-02T07:18:00Z,27.6346,-97.2370,1.066,1111122 
TCOON,ioos:station:TCOON:005:1,2017-05-02T08:18:00Z,27.6346,-97.2370,1.056,1111122 
TCOON,ioos:station:TCOON:005:1,2017-05-02T09:18:00Z,27.6346,-97.2370,1.047,1111122 
TCOON,ioos:station:TCOON:005:1,2017-05-02T10:18:00Z,27.6346,-97.2370,1.043,1111122 
TCOON,ioos:station:TCOON:005:1,2017-05-02T11:18:00Z,27.6346,-97.2370,1.038,1111122 
TCOON,ioos:station:TCOON:005:1,2017-05-02T12:18:00Z,27.6346,-97.2370,1.049,1111122 
TCOON,ioos:station:TCOON:005:1,2017-05-02T13:18:00Z,27.6346,-97.2370,1.047,1111122 
TCOON,ioos:station:TCOON:005:1,2017-05-02T14:18:00Z,27.6346,-97.2370,1.051,1111122 
TCOON,ioos:station:TCOON:005:1,2017-05-02T15:18:00Z,27.6346,-97.2370,1.06,1111122 
TCOON,ioos:station:TCOON:005:1,2017-05-02T16:18:00Z,27.6346,-97.2370,1.076,1111122 
TCOON,ioos:station:TCOON:005:1,2017-05-02T17:18:00Z,27.6346,-97.2370,1.094,1111122 
TCOON,ioos:station:TCOON:005:1,2017-05-02T18:18:00Z,27.6346,-97.2370,1.114,1111122 
TCOON,ioos:station:TCOON:005:1,2017-05-02T19:18:00Z,27.6346,-97.2370,1.13,1111122 
TCOON,ioos:station:TCOON:005:1,2017-05-02T20:18:00Z,27.6346,-97.2370,1.144,1111122 
TCOON,ioos:station:TCOON:005:1,2017-05-02T21:18:00Z,27.6346,-97.2370,1.151,1111122 
TCOON,ioos:station:TCOON:005:1,2017-05-02T22:18:00Z,27.6346,-97.2370,1.162,1111122 
TCOON,ioos:station:TCOON:005:1,2017-05-02T23:18:00Z,27.6346,-97.2370,1.172,1111122 
TCOON,ioos:station:TCOON:005:1,2017-05-03T00:18:00Z,27.6346,-97.2370,1.174,1111122 
TCOON,ioos:station:TCOON:005:1,2017-05-03T01:18:00Z,27.6346,-97.2370,1.178,1111122 
TCOON,ioos:station:TCOON:005:1,2017-05-03T02:18:00Z,27.6346,-97.2370,1.186,1111122 
TCOON,ioos:station:TCOON:005:1,2017-05-03T03:18:00Z,27.6346,-97.2370,1.194,1111122 
TCOON,ioos:station:TCOON:005:1,2017-05-03T04:18:00Z,27.6346,-97.2370,1.2,1111122 
TCOON,ioos:station:TCOON:005:1,2017-05-03T05:18:00Z,27.6346,-97.2370,1.202,1111122 
TCOON,ioos:station:TCOON:005:1,2017-05-03T06:18:00Z,27.6346,-97.2370,1.203,1111122 
TCOON,ioos:station:TCOON:005:1,2017-05-03T07:18:00Z,27.6346,-97.2370,1.211,1111122 
TCOON,ioos:station:TCOON:005:1,2017-05-03T08:18:00Z,27.6346,-97.2370,1.201,1111122 
TCOON,ioos:station:TCOON:005:1,2017-05-03T09:18:00Z,27.6346,-97.2370,1.187,1111122 
TCOON,ioos:station:TCOON:005:1,2017-05-03T10:18:00Z,27.6346,-97.2370,1.174,1111122 
TCOON,ioos:station:TCOON:005:1,2017-05-03T11:18:00Z,27.6346,-97.2370,1.162,1111122 
TCOON,ioos:station:TCOON:005:1,2017-05-03T12:18:00Z,27.6346,-97.2370,1.166,1111122 
TCOON,ioos:station:TCOON:005:1,2017-05-03T13:18:00Z,27.6346,-97.2370,1.173,1111122 
TCOON,ioos:station:TCOON:005:1,2017-05-03T14:18:00Z,27.6346,-97.2370,1.174,1111122 
TCOON,ioos:station:TCOON:005:1,2017-05-03T15:18:00Z,27.6346,-97.2370,1.179,1111122 
TCOON,ioos:station:TCOON:005:1,2017-05-03T16:18:00Z,27.6346,-97.2370,1.19,1111122 
TCOON,ioos:station:TCOON:005:1,2017-05-03T17:18:00Z,27.6346,-97.2370,1.199,1111122 
TCOON,ioos:station:TCOON:005:1,2017-05-03T18:18:00Z,27.6346,-97.2370,1.21,1111122 
TCOON,ioos:station:TCOON:005:1,2017-05-03T19:18:00Z,27.6346,-97.2370,1.225,1111122 
TCOON,ioos:station:TCOON:005:1,2017-05-03T20:18:00Z,27.6346,-97.2370,1.241,1111122 
TCOON,ioos:station:TCOON:005:1,2017-05-03T21:18:00Z,27.6346,-97.2370,1.256,1111122 
TCOON,ioos:station:TCOON:005:1,2017-05-04T01:18:00Z,27.6346,-97.2370,1.276,1111122 
TCOON,ioos:station:TCOON:005:1,2017-05-04T02:18:00Z,27.6346,-97.2370,1.276,1111122 
TCOON,ioos:station:TCOON:005:1,2017-05-04T03:18:00Z,27.6346,-97.2370,1.28,1111122 
TCOON,ioos:station:TCOON:005:1,2017-05-04T04:18:00Z,27.6346,-97.2370,1.277,1111122 
TCOON,ioos:station:TCOON:005:1,2017-05-04T05:18:00Z,27.6346,-97.2370,1.322,1111122 
TCOON,ioos:station:TCOON:005:1,2017-05-04T06:18:00Z,27.6346,-97.2370,1.358,1111122 
TCOON,ioos:station:TCOON:005:1,2017-05-04T07:18:00Z,27.6346,-97.2370,1.336,1111122 
TCOON,ioos:station:TCOON:005:1,2017-05-04T08:18:00Z,27.6346,-97.2370,1.322,1111122 
TCOON,ioos:station:TCOON:005:1,2017-05-04T09:18:00Z,27.6346,-97.2370,1.302,1111122 
TCOON,ioos:station:TCOON:005:1,2017-05-04T10:18:00Z,27.6346,-97.2370,1.286,1111122 
TCOON,ioos:station:TCOON:005:1,2017-05-04T11:18:00Z,27.6346,-97.2370,1.275,1111122 
TCOON,ioos:station:TCOON:005:1,2017-05-04T12:18:00Z,27.6346,-97.2370,1.253,1111122 
TCOON,ioos:station:TCOON:005:1,2017-05-04T13:18:00Z,27.6346,-97.2370,1.231,1111122 
TCOON,ioos:station:TCOON:005:1,2017-05-04T14:18:00Z,27.6346,-97.2370,1.225,1111122 
TCOON,ioos:station:TCOON:005:1,2017-05-04T15:18:00Z,27.6346,-97.2370,1.23,1111122 
TCOON,ioos:station:TCOON:005:1,2017-05-04T16:18:00Z,27.6346,-97.2370,1.234,1111122 
TCOON,ioos:station:TCOON:005:1,2017-05-04T17:18:00Z,27.6346,-97.2370,1.231,1111122 
TCOON,ioos:station:TCOON:005:1,2017-05-04T18:12:00Z,27.6346,-97.2370,1.226,1111122 
TCOON,ioos:station:TCOON:005:1,2017-05-04T19:18:00Z,27.6346,-97.2370,1.25,1111122 
TCOON,ioos:station:TCOON:005:1,2017-05-04T20:12:00Z,27.6346,-97.2370,1.26,1111122 
TCOON,ioos:station:TCOON:005:1,2017-05-04T21:18:00Z,27.6346,-97.2370,1.25,1111122 
TCOON,ioos:station:TCOON:005:1,2017-05-04T22:18:00Z,27.6346,-97.2370,1.252,1111122 
TCOON,ioos:station:TCOON:005:1,2017-05-04T23:18:00Z,27.6346,-97.2370,1.24,1111122 
TCOON,ioos:station:TCOON:005:1,2017-05-05T00:18:00Z,27.6346,-97.2370,1.225,1111122 
TCOON,ioos:station:TCOON:005:1,2017-05-05T01:12:00Z,27.6346,-97.2370,1.205,1111122 
TCOON,ioos:station:TCOON:005:1,2017-05-05T02:12:00Z,27.6346,-97.2370,1.181,1111122 
TCOON,ioos:station:TCOON:005:1,2017-05-05T03:18:00Z,27.6346,-97.2370,1.161,1111122 
TCOON,ioos:station:TCOON:005:1,2017-05-05T04:18:00Z,27.6346,-97.2370,1.15,1111122 
TCOON,ioos:station:TCOON:005:1,2017-05-05T05:18:00Z,27.6346,-97.2370,1.135,1111122 
TCOON,ioos:station:TCOON:005:1,2017-05-05T06:18:00Z,27.6346,-97.2370,1.132,1111122 
TCOON,ioos:station:TCOON:005:1,2017-05-05T07:18:00Z,27.6346,-97.2370,1.113,1111122 
TCOON,ioos:station:TCOON:005:1,2017-05-05T08:12:00Z,27.6346,-97.2370,1.108,1111122 
TCOON,ioos:station:TCOON:005:1,2017-05-05T09:18:00Z,27.6346,-97.2370,1.102,1111122 
TCOON,ioos:station:TCOON:005:1,2017-05-05T10:18:00Z,27.6346,-97.2370,1.098,1111122 
TCOON,ioos:station:TCOON:005:1,2017-05-05T11:18:00Z,27.6346,-97.2370,1.09,1111122 
TCOON,ioos:station:TCOON:005:1,2017-05-05T12:12:00Z,27.6346,-97.2370,1.083,1111122 
TCOON,ioos:station:TCOON:005:1,2017-05-05T13:12:00Z,27.6346,-97.2370,1.075,1111122 
TCOON,ioos:station:TCOON:005:1,2017-05-05T14:18:00Z,27.6346,-97.2370,1.063,1111122 
TCOON,ioos:station:TCOON:005:1,2017-05-05T16:24:00Z,27.6346,-97.2370,1.048,1111122 
TCOON,ioos:station:TCOON:005:1,2017-05-05T17:18:00Z,27.6346,-97.2370,1.044,1111122 
TCOON,ioos:station:TCOON:005:1,2017-05-05T18:18:00Z,27.6346,-97.2370,1.045,1111122 
TCOON,ioos:station:TCOON:005:1,2017-05-05T19:18:00Z,27.6346,-97.2370,1.044,1111122 
TCOON,ioos:station:TCOON:005:1,2017-05-05T20:36:00Z,27.6346,-97.2370,1.038,1111122 
TCOON,ioos:station:TCOON:005:1,2017-05-05T21:30:00Z,27.6346,-97.2370,1.051,1111122 
TCOON,ioos:station:TCOON:005:1,2017-05-05T22:30:00Z,27.6346,-97.2370,1.052,1111122 
TCOON,ioos:station:TCOON:005:1,2017-05-05T23:30:00Z,27.6346,-97.2370,1.06,1111122 
TCOON,ioos:station:TCOON:005:1,2017-05-06T00:30:00Z,27.6346,-97.2370,1.054,1111122 
TCOON,ioos:station:TCOON:005:1,2017-05-06T02:00:00Z,27.6346,-97.2370,1.037,1111122 
TCOON,ioos:station:TCOON:005:1,2017-05-06T02:24:00Z,27.6346,-97.2370,1.035,1111122 
TCOON,ioos:station:TCOON:005:1,2017-05-06T03:30:00Z,27.6346,-97.2370,1.025,1111122 
TCOON,ioos:station:TCOON:005:1,2017-05-06T04:42:00Z,27.6346,-97.2370,1.02,1111122 
TCOON,ioos:station:TCOON:005:1,2017-05-06T06:00:00Z,27.6346,-97.2370,1.016,1111122 
TCOON,ioos:station:TCOON:005:1,2017-05-06T06:30:00Z,27.6346,-97.2370,1.016,1111122 
TCOON,ioos:station:TCOON:005:1,2017-05-06T07:18:00Z,27.6346,-97.2370,1.017,1111122 
TCOON,ioos:station:TCOON:005:1,2017-05-06T08:18:00Z,27.6346,-97.2370,1.012,1111122 
TCOON,ioos:station:TCOON:005:1,2017-05-06T09:24:00Z,27.6346,-97.2370,1.013,1111122 
TCOON,ioos:station:TCOON:005:1,2017-05-06T10:24:00Z,27.6346,-97.2370,1.01,1111122 
TCOON,ioos:station:TCOON:005:1,2017-05-06T11:24:00Z,27.6346,-97.2370,1.006,1111122 
TCOON,ioos:station:TCOON:005:1,2017-05-06T12:30:00Z,27.6346,-97.2370,0.997,1111122 
TCOON,ioos:station:TCOON:005:1,2017-05-06T13:24:00Z,27.6346,-97.2370,0.989,1111122 
TCOON,ioos:station:TCOON:005:1,2017-05-06T14:24:00Z,27.6346,-97.2370,0.987,1111122 
TCOON,ioos:station:TCOON:005:1,2017-05-06T15:24:00Z,27.6346,-97.2370,0.987,1111122 
TCOON,ioos:station:TCOON:005:1,2017-05-06T16:24:00Z,27.6346,-97.2370,0.993,1111122 
TCOON,ioos:station:TCOON:005:1,2017-05-06T17:24:00Z,27.6346,-97.2370,0.992,1111122 
TCOON,ioos:station:TCOON:005:1,2017-05-06T18:24:00Z,27.6346,-97.2370,0.99,1111122 
TCOON,ioos:station:TCOON:005:1,2017-05-06T19:30:00Z,27.6346,-97.2370,0.994,1111122 
TCOON,ioos:station:TCOON:005:1,2017-05-06T20:30:00Z,27.6346,-97.2370,0.995,1111122 
TCOON,ioos:station:TCOON:005:1,2017-05-06T21:24:00Z,27.6346,-97.2370,0.996,1111122 
TCOON,ioos:station:TCOON:005:1,2017-05-06T22:24:00Z,27.6346,-97.2370,0.986,1111122 
TCOON,ioos:station:TCOON:005:1,2017-05-06T23:24:00Z,27.6346,-97.2370,0.983,1111122 
TCOON,ioos:station:TCOON:005:1,2017-05-07T00:24:00Z,27.6346,-97.2370,0.975,1111122 
TCOON,ioos:station:TCOON:005:1,2017-05-07T01:24:00Z,27.6346,-97.2370,0.968,1111122 
TCOON,ioos:station:TCOON:005:1,2017-05-07T02:24:00Z,27.6346,-97.2370,0.965,1111122 
TCOON,ioos:station:TCOON:005:1,2017-05-07T03:24:00Z,27.6346,-97.2370,0.958,1111122 
TCOON,ioos:station:TCOON:005:1,2017-05-07T04:24:00Z,27.6346,-97.2370,0.96,1111122 
TCOON,ioos:station:TCOON:005:1,2017-05-07T05:36:00Z,27.6346,-97.2370,0.966,1111122 
TCOON,ioos:station:TCOON:005:1,2017-05-07T06:36:00Z,27.6346,-97.2370,0.969,1111122 
TCOON,ioos:station:TCOON:005:1,2017-05-07T07:30:00Z,27.6346,-97.2370,0.971,1111122 
TCOON,ioos:station:TCOON:005:1,2017-05-07T08:24:00Z,27.6346,-97.2370,0.976,1111122 
TCOON,ioos:station:TCOON:005:1,2017-05-07T09:30:00Z,27.6346,-97.2370,0.983,1111122 
TCOON,ioos:station:TCOON:005:1,2017-05-07T10:24:00Z,27.6346,-97.2370,0.985,1111122 
TCOON,ioos:station:TCOON:005:1,2017-05-07T11:24:00Z,27.6346,-97.2370,0.991,1111122 
TCOON,ioos:station:TCOON:005:1,2017-05-07T12:24:00Z,27.6346,-97.2370,0.992,1111122 
TCOON,ioos:station:TCOON:005:1,2017-05-07T13:24:00Z,27.6346,-97.2370,0.988,1111122 
TCOON,ioos:station:TCOON:005:1,2017-05-07T14:24:00Z,27.6346,-97.2370,0.99,1111122 
TCOON,ioos:station:TCOON:005:1,2017-05-07T15:24:00Z,27.6346,-97.2370,0.993,1111122 
TCOON,ioos:station:TCOON:005:1,2017-05-07T16:36:00Z,27.6346,-97.2370,0.996,1111122 
TCOON,ioos:station:TCOON:005:1,2017-05-07T17:30:00Z,27.6346,-97.2370,0.996,1111122 
TCOON,ioos:station:TCOON:005:1,2017-05-07T18:24:00Z,27.6346,-97.2370,0.997,1111122 
TCOON,ioos:station:TCOON:005:1,2017-05-07T19:24:00Z,27.6346,-97.2370,0.997,1111122 
TCOON,ioos:station:TCOON:005:1,2017-05-07T20:30:00Z,27.6346,-97.2370,1.001,1111122 
TCOON,ioos:station:TCOON:005:1,2017-05-07T21:24:00Z,27.6346,-97.2370,0.986,1111122 
TCOON,ioos:station:TCOON:005:1,2017-05-07T22:24:00Z,27.6346,-97.2370,0.978,1111122 
TCOON,ioos:station:TCOON:005:1,2017-05-07T23:24:00Z,27.6346,-97.2370,0.964,1111122 
TCOON,ioos:station:TCOON:005:1,2017-05-08T00:24:00Z,27.6346,-97.2370,0.952,1111122 
TCOON,ioos:station:TCOON:005:1,2017-05-08T01:24:00Z,27.6346,-97.2370,0.943,1111122 
TCOON,ioos:station:TCOON:005:1,2017-05-08T02:24:00Z,27.6346,-97.2370,0.934,1111122 
TCOON,ioos:station:TCOON:005:1,2017-05-08T03:42:00Z,27.6346,-97.2370,0.922,1111122 
TCOON,ioos:station:TCOON:005:1,2017-05-08T04:30:00Z,27.6346,-97.2370,0.916,1111122 
TCOON,ioos:station:TCOON:005:1,2017-05-08T05:30:00Z,27.6346,-97.2370,0.915,1111122 
TCOON,ioos:station:TCOON:005:1,2017-05-08T06:24:00Z,27.6346,-97.2370,0.92,1111122 
TCOON,ioos:station:TCOON:005:1,2017-05-08T07:24:00Z,27.6346,-97.2370,0.924,1111122 
TCOON,ioos:station:TCOON:005:1,2017-05-08T08:24:00Z,27.6346,-97.2370,0.929,1111122 
TCOON,ioos:station:TCOON:005:1,2017-05-08T09:24:00Z,27.6346,-97.2370,0.941,1111122 
TCOON,ioos:station:TCOON:005:1,2017-05-08T10:24:00Z,27.6346,-97.2370,0.949,1111122 
TCOON,ioos:station:TCOON:005:1,2017-05-08T11:24:00Z,27.6346,-97.2370,0.954,1111122 
TCOON,ioos:station:TCOON:005:1,2017-05-08T12:24:00Z,27.6346,-97.2370,0.962,1111122 
TCOON,ioos:station:TCOON:005:1,2017-05-08T13:24:00Z,27.6346,-97.2370,0.971,1111122 
TCOON,ioos:station:TCOON:005:1,2017-05-08T14:30:00Z,27.6346,-97.2370,0.977,1111122 
TCOON,ioos:station:TCOON:005:1,2017-05-08T15:24:00Z,27.6346,-97.2370,0.983,1111122 
TCOON,ioos:station:TCOON:005:1,2017-05-08T16:24:00Z,27.6346,-97.2370,0.987,1111122 
TCOON,ioos:station:TCOON:005:1,2017-05-08T17:30:00Z,27.6346,-97.2370,0.99,1111122 
TCOON,ioos:station:TCOON:005:1,2017-05-08T18:24:00Z,27.6346,-97.2370,0.994,1111122 
TCOON,ioos:station:TCOON:005:1,2017-05-08T19:24:00Z,27.6346,-97.2370,0.999,1111122 
TCOON,ioos:station:TCOON:005:1,2017-05-08T20:24:00Z,27.6346,-97.2370,1.005,1111122 
TCOON,ioos:station:TCOON:005:1,2017-05-08T21:24:00Z,27.6346,-97.2370,1.003,1111122 
TCOON,ioos:station:TCOON:005:1,2017-05-08T22:24:00Z,27.6346,-97.2370,0.996,1111122 
TCOON,ioos:station:TCOON:005:1,2017-05-08T23:24:00Z,27.6346,-97.2370,0.984,1111122 
TCOON,ioos:station:TCOON:005:1,2017-05-09T00:42:00Z,27.6346,-97.2370,0.971,1111122 
TCOON,ioos:station:TCOON:005:1,2017-05-09T01:30:00Z,27.6346,-97.2370,0.971,1111122 
TCOON,ioos:station:TCOON:005:1,2017-05-09T02:24:00Z,27.6346,-97.2370,0.959,1111122 
TCOON,ioos:station:TCOON:005:1,2017-05-09T03:24:00Z,27.6346,-97.2370,0.951,1111122 
TCOON,ioos:station:TCOON:005:1,2017-05-09T04:24:00Z,27.6346,-97.2370,0.947,1111122 
TCOON,ioos:station:TCOON:005:1,2017-05-09T05:24:00Z,27.6346,-97.2370,0.946,1111122 
TCOON,ioos:station:TCOON:005:1,2017-05-09T06:24:00Z,27.6346,-97.2370,0.948,1111122 
TCOON,ioos:station:TCOON:005:1,2017-05-09T07:24:00Z,27.6346,-97.2370,0.947,1111122 
TCOON,ioos:station:TCOON:005:1,2017-05-09T08:24:00Z,27.6346,-97.2370,0.952,1111122 
TCOON,ioos:station:TCOON:005:1,2017-05-09T09:24:00Z,27.6346,-97.2370,0.96,1111122 
TCOON,ioos:station:TCOON:005:1,2017-05-09T10:24:00Z,27.6346,-97.2370,0.972,1111122 
TCOON,ioos:station:TCOON:005:1,2017-05-09T11:24:00Z,27.6346,-97.2370,0.986,1111122 
TCOON,ioos:station:TCOON:005:1,2017-05-09T12:36:00Z,27.6346,-97.2370,1.006,1111122 
TCOON,ioos:station:TCOON:005:1,2017-05-09T13:42:00Z,27.6346,-97.2370,1.017,1111122 
TCOON,ioos:station:TCOON:005:1,2017-05-09T14:24:00Z,27.6346,-97.2370,1.023,1111122 
TCOON,ioos:station:TCOON:005:1,2017-05-09T15:24:00Z,27.6346,-97.2370,1.033,1111122 
TCOON,ioos:station:TCOON:005:1,2017-05-09T16:18:00Z,27.6346,-97.2370,1.038,1111122 
TCOON,ioos:station:TCOON:005:1,2017-05-09T17:18:00Z,27.6346,-97.2370,1.04,1111122 
TCOON,ioos:station:TCOON:005:1,2017-05-09T18:18:00Z,27.6346,-97.2370,1.041,1111122 
TCOON,ioos:station:TCOON:005:1,2017-05-09T19:18:00Z,27.6346,-97.2370,1.043,1111122 
TCOON,ioos:station:TCOON:005:1,2017-05-09T20:18:00Z,27.6346,-97.2370,1.039,1111122 
TCOON,ioos:station:TCOON:005:1,2017-05-09T21:18:00Z,27.6346,-97.2370,1.037,1111122 
TCOON,ioos:station:TCOON:005:1,2017-05-09T22:18:00Z,27.6346,-97.2370,1.031,1111122 
TCOON,ioos:station:TCOON:005:1,2017-05-09T23:18:00Z,27.6346,-97.2370,1.019,1111122 
TCOON,ioos:station:TCOON:005:1,2017-05-10T00:18:00Z,27.6346,-97.2370,1.012,1111122 
TCOON,ioos:station:TCOON:005:1,2017-05-10T01:18:00Z,27.6346,-97.2370,1.008,1111122 
TCOON,ioos:station:TCOON:005:1,2017-05-10T02:18:00Z,27.6346,-97.2370,0.993,1111122 
TCOON,ioos:station:TCOON:005:1,2017-05-10T03:18:00Z,27.6346,-97.2370,0.98,1111122 
TCOON,ioos:station:TCOON:005:1,2017-05-10T04:18:00Z,27.6346,-97.2370,0.972,1111122 
TCOON,ioos:station:TCOON:005:1,2017-05-10T05:18:00Z,27.6346,-97.2370,0.967,1111122 
TCOON,ioos:station:TCOON:005:1,2017-05-10T06:18:00Z,27.6346,-97.2370,0.968,1111122 
TCOON,ioos:station:TCOON:005:1,2017-05-10T07:18:00Z,27.6346,-97.2370,0.974,1111122 
TCOON,ioos:station:TCOON:005:1,2017-05-10T08:18:00Z,27.6346,-97.2370,0.978,1111122 
TCOON,ioos:station:TCOON:005:1,2017-05-10T09:18:00Z,27.6346,-97.2370,0.976,1111122 
TCOON,ioos:station:TCOON:005:1,2017-05-10T10:18:00Z,27.6346,-97.2370,0.983,1111122 
TCOON,ioos:station:TCOON:005:1,2017-05-10T11:18:00Z,27.6346,-97.2370,0.992,1111122 
TCOON,ioos:station:TCOON:005:1,2017-05-10T12:18:00Z,27.6346,-97.2370,1.003,1111122 
TCOON,ioos:station:TCOON:005:1,2017-05-10T13:18:00Z,27.6346,-97.2370,1.014,1111122 
TCOON,ioos:station:TCOON:005:1,2017-05-10T14:18:00Z,27.6346,-97.2370,1.025,1111122 
TCOON,ioos:station:TCOON:005:1,2017-05-10T15:18:00Z,27.6346,-97.2370,1.039,1111122 
TCOON,ioos:station:TCOON:005:1,2017-05-10T16:18:00Z,27.6346,-97.2370,1.046,1111122 
TCOON,ioos:station:TCOON:005:1,2017-05-10T17:18:00Z,27.6346,-97.2370,1.052,1111122 
TCOON,ioos:station:TCOON:005:1,2017-05-10T18:42:00Z,27.6346,-97.2370,1.057,1111122 
TCOON,ioos:station:TCOON:005:1,2017-05-10T19:18:00Z,27.6346,-97.2370,1.056,1111122 
TCOON,ioos:station:TCOON:005:1,2017-05-10T20:18:00Z,27.6346,-97.2370,1.062,1111122 
TCOON,ioos:station:TCOON:005:1,2017-05-10T21:18:00Z,27.6346,-97.2370,1.065,1111122 
TCOON,ioos:station:TCOON:005:1,2017-05-10T22:18:00Z,27.6346,-97.2370,1.061,1111122 
TCOON,ioos:station:TCOON:005:1,2017-05-10T23:18:00Z,27.6346,-97.2370,1.052,1111122 
TCOON,ioos:station:TCOON:005:1,2017-05-11T00:18:00Z,27.6346,-97.2370,1.043,1111122 
TCOON,ioos:station:TCOON:005:1,2017-05-11T01:18:00Z,27.6346,-97.2370,1.033,1111122 
TCOON,ioos:station:TCOON:005:1,2017-05-11T02:18:00Z,27.6346,-97.2370,1.016,1111122 
TCOON,ioos:station:TCOON:005:1,2017-05-11T03:18:00Z,27.6346,-97.2370,1.009,1111122 
TCOON,ioos:station:TCOON:005:1,2017-05-11T04:18:00Z,27.6346,-97.2370,0.989,1111122 
TCOON,ioos:station:TCOON:005:1,2017-05-11T05:18:00Z,27.6346,-97.2370,0.979,1111122 
TCOON,ioos:station:TCOON:005:1,2017-05-11T06:18:00Z,27.6346,-97.2370,0.973,1111122 
TCOON,ioos:station:TCOON:005:1,2017-05-11T07:18:00Z,27.6346,-97.2370,0.983,1111122 
TCOON,ioos:station:TCOON:005:1,2017-05-11T08:18:00Z,27.6346,-97.2370,0.978,1111122 
TCOON,ioos:station:TCOON:005:1,2017-05-11T09:18:00Z,27.6346,-97.2370,0.981,1111122 
TCOON,ioos:station:TCOON:005:1,2017-05-11T10:18:00Z,27.6346,-97.2370,0.994,1111122 
TCOON,ioos:station:TCOON:005:1,2017-05-11T11:18:00Z,27.6346,-97.2370,1.01,1111122 
TCOON,ioos:station:TCOON:005:1,2017-05-11T12:18:00Z,27.6346,-97.2370,1.026,1111122 
TCOON,ioos:station:TCOON:005:1,2017-05-11T13:18:00Z,27.6346,-97.2370,1.044,1111122 
TCOON,ioos:station:TCOON:005:1,2017-05-11T14:18:00Z,27.6346,-97.2370,1.057,1111122 
TCOON,ioos:station:TCOON:005:1,2017-05-11T15:18:00Z,27.6346,-97.2370,1.068,1111122 
TCOON,ioos:station:TCOON:005:1,2017-05-11T16:18:00Z,27.6346,-97.2370,1.081,1111122 
TCOON,ioos:station:TCOON:005:1,2017-05-11T17:18:00Z,27.6346,-97.2370,1.077,1111122 
TCOON,ioos:station:TCOON:005:1,2017-05-11T18:18:00Z,27.6346,-97.2370,1.07,1111122 
TCOON,ioos:station:TCOON:005:1,2017-05-11T19:18:00Z,27.6346,-97.2370,1.065,1111122 
TCOON,ioos:station:TCOON:005:1,2017-05-11T20:18:00Z,27.6346,-97.2370,1.06,1111122 
TCOON,ioos:station:TCOON:005:1,2017-05-11T21:18:00Z,27.6346,-97.2370,1.061,1111122 
TCOON,ioos:station:TCOON:005:1,2017-05-11T22:18:00Z,27.6346,-97.2370,1.06,1111122 
TCOON,ioos:station:TCOON:005:1,2017-05-11T23:18:00Z,27.6346,-97.2370,1.047,1111122 
TCOON,ioos:station:TCOON:005:1,2017-05-12T00:18:00Z,27.6346,-97.2370,1.047,1111122 
TCOON,ioos:station:TCOON:005:1,2017-05-12T01:18:00Z,27.6346,-97.2370,1.033,1111122 
TCOON,ioos:station:TCOON:005:1,2017-05-12T02:18:00Z,27.6346,-97.2370,1.015,1111122 
TCOON,ioos:station:TCOON:005:1,2017-05-12T03:18:00Z,27.6346,-97.2370,1.003,1111122 
TCOON,ioos:station:TCOON:005:1,2017-05-12T04:18:00Z,27.6346,-97.2370,0.996,1111122 
TCOON,ioos:station:TCOON:005:1,2017-05-12T05:18:00Z,27.6346,-97.2370,0.985,1111122 
TCOON,ioos:station:TCOON:005:1,2017-05-12T06:18:00Z,27.6346,-97.2370,0.976,1111122 
TCOON,ioos:station:TCOON:005:1,2017-05-12T07:18:00Z,27.6346,-97.2370,0.969,1111122 
TCOON,ioos:station:TCOON:005:1,2017-05-12T08:18:00Z,27.6346,-97.2370,0.973,1111122 
TCOON,ioos:station:TCOON:005:1,2017-05-12T09:18:00Z,27.6346,-97.2370,0.98,1111122 
TCOON,ioos:station:TCOON:005:1,2017-05-12T10:18:00Z,27.6346,-97.2370,0.985,1111122 
TCOON,ioos:station:TCOON:005:1,2017-05-12T11:18:00Z,27.6346,-97.2370,0.994,1111122 
TCOON,ioos:station:TCOON:005:1,2017-05-12T12:18:00Z,27.6346,-97.2370,1.002,1111122 
TCOON,ioos:station:TCOON:005:1,2017-05-12T13:18:00Z,27.6346,-97.2370,1.017,1111122 
TCOON,ioos:station:TCOON:005:1,2017-05-12T14:24:00Z,27.6346,-97.2370,1.045,1111122 
TCOON,ioos:station:TCOON:005:1,2017-05-12T15:24:00Z,27.6346,-97.2370,1.077,1111122 
TCOON,ioos:station:TCOON:005:1,2017-05-12T16:18:00Z,27.6346,-97.2370,1.079,1111122 
TCOON,ioos:station:TCOON:005:1,2017-05-12T17:18:00Z,27.6346,-97.2370,1.085,1111122 
TCOON,ioos:station:TCOON:005:1,2017-05-12T18:18:00Z,27.6346,-97.2370,1.083,1111122 
TCOON,ioos:station:TCOON:005:1,2017-05-12T19:30:00Z,27.6346,-97.2370,1.075,1111122 
TCOON,ioos:station:TCOON:005:1,2017-05-12T20:18:00Z,27.6346,-97.2370,1.076,1111122 
TCOON,ioos:station:TCOON:005:1,2017-05-12T21:18:00Z,27.6346,-97.2370,1.076,1111122 
TCOON,ioos:station:TCOON:005:1,2017-05-12T22:18:00Z,27.6346,-97.2370,1.074,1111122 
TCOON,ioos:station:TCOON:005:1,2017-05-14T14:18:00Z,27.6346,-97.2370,0.929,1111122 
TCOON,ioos:station:TCOON:005:1,2017-05-14T15:18:00Z,27.6346,-97.2370,0.939,1111122 